Jersey, United Kingdom

11:21 PM GMT on February 08, 2016 (GMT +0000)
Jersey

Weather History for EGJJ - July, 2013

Change the Weather History Date:

Sunday, July 21, 2013

  Actual Average Record
Temperature  
Mean Temperature 73 °F -  
Max Temperature 85 °F 67 °F 85 °F (2013)
Min Temperature 61 °F 56 °F 53 °F (2012)
Cooling Degree Days 8    
Growing Degree Days 23 (Base 50)    
Moisture  
Dew Point 62 °F    
Average Humidity 71    
Maximum Humidity 94    
Minimum Humidity 46    
Precipitation  
Precipitation 0.00 in - - ()
Sea Level Pressure  
Sea Level Pressure 30.00 in    
Wind  
Wind Speed 14 mph ()    
Max Wind Speed 30 mph    
Max Gust Speed -    
Visibility 4.9 miles    
Events Rain , Thunderstorm    
Averages and records for this station are not official NWS values.
T = Trace of Precipitation, MM = Missing Value Source: Averaged Metar Reports

Daily Weather History Graph

Daily Weather History Graph

Search for Another Location

Airport or City:

Trip Planner

Search our weather history database for the weather conditions in past years. The results will help you decide how hot, cold, wet, or windy it might be!

Date:

Astronomy

Jul. 21, 2013 Rise Set
Actual Time 5:26 AM BST 9:02 PM BST
Civil Twilight 4:46 AM BST 9:42 PM BST
Nautical Twilight 3:53 AM BST 10:36 PM BST
Astronomical Twilight 2:36 AM BST 11:50 PM BST
Moon 7:44 PM BST (7/21) 3:57 AM BST (7/21)
Length of Visible Light 16h 55m
Length of Day
15h 36m
Waxing Gibbous, 97% of the Moon is Illuminated
Jul 21
Waxing Gibbous
Jul 22
Full
Jul 29
Last Quarter
Aug 6
New
Aug 14
First Quarter

Hourly Weather History & Observations

Time (BST) Temp. Heat Index Dew Point Humidity Pressure Visibility Wind Dir Wind Speed Gust Speed Precip Events Conditions
1:00 AM 61 °F - 58 °F 87% 30.04 in 9 mi ENE 18.4 mph - -   Scattered Clouds
3:50 AM 60.8 °F - 59.0 °F 94% 30.01 in 3.1 mi ENE 18.4 mph - N/A Thunderstorm Thunderstorm
4:00 AM 62 °F - 60 °F 90% 30.02 in 3 mi NE 13.8 mph - - Thunderstorm Light Thunderstorm
4:20 AM 62.6 °F - 59.0 °F 88% 30.01 in 3.1 mi NE 16.1 mph - N/A   Partly Cloudy
4:50 AM 60.8 °F - 59.0 °F 94% 30.01 in 1.9 mi ENE 13.8 mph - N/A   Partly Cloudy
5:20 AM 60.8 °F - 59.0 °F 94% 30.01 in 1.6 mi ENE 16.1 mph - N/A   Partly Cloudy
5:50 AM 60.8 °F - 59.0 °F 94% 30.01 in 2.5 mi East 17.3 mph - N/A   Partly Cloudy
6:20 AM 62.6 °F - 60.8 °F 94% 30.01 in 2.8 mi East 15.0 mph - N/A   Partly Cloudy
6:50 AM 62.6 °F - 60.8 °F 94% 30.01 in 2.8 mi East 16.1 mph - N/A   Partly Cloudy
7:00 AM 63 °F - 60 °F 88% 30.02 in 3 mi East 15.0 mph - -   Haze
7:20 AM 64.4 °F - 60.8 °F 88% 30.01 in 3.1 mi East 17.3 mph - N/A   Haze
7:50 AM 64.4 °F - 60.8 °F 88% 30.01 in 3.1 mi East 15.0 mph - N/A   Haze
8:20 AM 66.2 °F - 60.8 °F 83% 30.01 in 3.1 mi East 21.9 mph - N/A   Haze
8:50 AM 68.0 °F - 60.8 °F 78% 30.01 in 3.7 mi East 13.8 mph - N/A   Unknown
9:20 AM 69.8 °F - 62.6 °F 78% 30.01 in 4.3 mi East 16.1 mph - N/A   Unknown
9:50 AM 71.6 °F - 62.6 °F 73% 30.01 in 5.0 mi East 12.7 mph - N/A   Unknown
10:00 AM 72 °F - 62 °F 64% 30.01 in 5 mi East 12.7 mph - -   Haze
10:20 AM 73.4 °F - 62.6 °F 69% 30.01 in 5.6 mi ENE 12.7 mph - N/A   Unknown
10:50 AM 75.2 °F - 62.6 °F 65% 30.01 in - East 12.7 mph - N/A   Clear
11:20 AM 77.0 °F - 62.6 °F 61% 30.01 in - East 13.8 mph - N/A   Clear
11:50 AM 75.2 °F - 64.4 °F 69% 30.01 in - East 15.0 mph - N/A   Clear
12:20 PM 77.0 °F - 62.6 °F 61% 30.01 in - ENE 11.5 mph - N/A   Clear
12:50 PM 78.8 °F - 64.4 °F 61% 30.01 in - East 10.4 mph - N/A   Clear
1:00 PM 79 °F - 64 °F 51% 29.99 in 7 mi East 10.4 mph - -   Scattered Clouds
1:20 PM 78.8 °F - 64.4 °F 61% 29.98 in - ENE 11.5 mph - N/A   Clear
1:50 PM 80.6 °F 82.3 °F 64.4 °F 58% 30.01 in - ENE 9.2 mph - N/A   Clear
2:20 PM 82.4 °F 83.9 °F 64.4 °F 54% 29.98 in - East 13.8 mph - N/A   Clear
2:50 PM 82.4 °F 84.6 °F 66.2 °F 58% 29.98 in - East 11.5 mph - N/A   Clear
3:20 PM 82.4 °F 84.6 °F 66.2 °F 58% 29.98 in - East 11.5 mph - N/A   Clear
3:50 PM 82.4 °F 84.6 °F 66.2 °F 58% 29.98 in - ENE 10.4 mph - N/A   Clear
4:00 PM 84 °F - 66 °F 46% 29.97 in 9 mi ENE 11.5 mph - -   Scattered Clouds
4:20 PM 84.2 °F 86.6 °F 66.2 °F 55% 29.98 in 6.2 mi ENE 13.8 mph - N/A   Partly Cloudy
4:50 PM 82.4 °F 84.6 °F 66.2 °F 58% 29.98 in 6.2 mi East 12.7 mph - N/A   Partly Cloudy
5:20 PM 82.4 °F 84.6 °F 66.2 °F 58% 29.95 in 6.2 mi East 13.8 mph - N/A   Partly Cloudy
5:50 PM 82.4 °F 84.6 °F 66.2 °F 58% 29.95 in 6.2 mi East 16.1 mph - N/A   Partly Cloudy
6:20 PM 80.6 °F 82.3 °F 64.4 °F 58% 29.95 in 6.2 mi East 13.8 mph - N/A   Partly Cloudy
6:50 PM 77.0 °F - 64.4 °F 65% 29.98 in 6.2 mi East 23.0 mph - N/A Thunderstorm Scattered Clouds
7:00 PM 78 °F - 64 °F 54% 29.96 in 12 mi East 19.6 mph - -   Partly Cloudy
7:20 PM 75.2 °F - 60.8 °F 61% 29.98 in 6.2 mi ESE 17.3 mph - N/A Thunderstorm Thunderstorm
7:50 PM 71.6 °F - 62.6 °F 73% 30.01 in 6.2 mi East 6.9 mph - N/A Rain , Thunderstorm Thunderstorms and Rain
8:20 PM 69.8 °F - 64.4 °F 83% 30.01 in 2.5 mi SE 20.7 mph - N/A Rain , Thunderstorm Light Thunderstorms and Rain
8:50 PM 68.0 °F - 62.6 °F 83% 30.04 in 3.7 mi SE 19.6 mph - N/A   Mostly Cloudy
9:20 PM 69.8 °F - 60.8 °F 73% 30.01 in 5.0 mi SE 29.9 mph - N/A   Scattered Clouds
9:50 PM 71.6 °F - 59.0 °F 64% 30.01 in 5.0 mi SE 26.5 mph - N/A Thunderstorm Thunderstorm
10:00 PM 72 °F - 60 °F 57% 30.00 in 5 mi SSE 18.4 mph - - Thunderstorm Thunderstorm
10:20 PM 69.8 °F - 59.0 °F 68% 29.98 in 6.2 mi SSE 11.5 mph - N/A   Partly Cloudy